Regional Weather Roundup
Issued by NWS

Home | Current Version | Previous Version | Graphics & Text | Print | Product List | Glossary On
Versions: 1 2 3 4 5 6 7 8 9 10 11 12 13 14 15 16 17 18 19 20 21 22 23 24 25 26 27
000
ASUS45 KSLC 190310
RWRUT

UTAH REGIONAL WEATHER ROUNDUP
NATIONAL WEATHER SERVICE SALT LAKE CITY UT
900 PM MDT MON SEP 18 2017

UTZ001>011-023>025-190400-

NORTHERN UTAH

CITY           SKY/WX    TMP DP  RH WIND       PRES   REMARKS
BRIGHAM CITY   CLOUDY    67  47  48 NW37G46   29.74R
HILL AFB       LGT RAIN  72  41  32 SW22G30   29.75R
LOGAN          LGT RAIN  64  49  57 NW5       29.76R
OGDEN          LGT RAIN  68  45  43 W18G37    29.74R
SALT LAKE CITY MOCLDY    78  35  21 S18G28    29.68F
TOOELE VALLEY  CLOUDY    77  37  24 S29G39    29.71R
WENDOVER       CLOUDY    73  29  19 W5        29.71S
HEBER CITY     PTCLDY    70  28  21 SE10G26   29.80F
WEST JORDAN    MOCLDY    74  46  36 S16       29.73F

$$

UTZ011>015-024>027-190400-

CENTRAL/NORTHEAST UTAH

CITY           SKY/WX    TMP DP  RH WIND       PRES   REMARKS
PROVO AIRPORT  MOCLDY    72  36  26 S14       29.78S
MOAB/CANYONLAN MOCLDY    76  22  13 S14       29.84F
DELTA          PTCLDY    70  32  24 S21G28    29.83R
PRICE          PTCLDY    65  31  28 E8        29.89S
ROOSEVELT      CLEAR     63  37  39 SW3       29.86S
VERNAL         CLEAR     68  36  30 S13       29.84F

$$

UTZ013>016-019>022-027-190400-

SOUTHERN UTAH

CITY           SKY/WX    TMP DP  RH WIND       PRES   REMARKS
BRYCE CANYON   CLEAR     54  30  40 S7        30.12R
CEDAR CITY     CLEAR     68  36  30 S14G24    29.95R
MILFORD        CLEAR     69  38  32 S17G24    29.88F
ST GEORGE      PTCLDY    80  35  19 S10       29.84R
HANKSVILLE     CLEAR     75  27  16 S8G17     29.87S
BLANDING         N/A     60  26  28 W3        30.09S

$$

REGIONAL REPORTS     COLORADO/ARIZONA

CITY           SKY/WX    TMP DP  RH WIND       PRES   REMARKS
CRAIG, CO      CLOUDY    65  32  29 CALM      29.94S
GRAND JUNCTION CLEAR     67  33  28 CALM      29.90S
RIFLE, CO      CLOUDY    70  24  17 S14       29.94S
MONTROSE, CO   CLOUDY    60  36  40 S5        30.03R
CORTEZ, CO     CLEAR     54  36  50 E8        30.05R
PAGE, AZ       CLEAR     81  22  11 SW14G22   29.90R
GRAND CANYON   CLEAR     61  22  22 SW10      30.14S
KINGMAN, AZ    CLEAR     70  38  31 S9        29.95R
FLAGSTAFF, AZ  CLEAR     59  20  22 W8        30.18R

$$

REGIONAL REPORTS    NEVADA/IDAHO/WYOMING

CITY           SKY/WX    TMP DP  RH WIND       PRES   REMARKS
LAS VEGAS, NV  CLEAR     87  38  17 S10       29.76F
ELY, NY        CLOUDY    68  32  26 S26G35    29.86F
ELKO, NV       CLOUDY    65  28  24 SW12      29.78S
POCATELLO, ID  LGT RAIN  58  43  57 S15       29.76F
BURLEY, ID     CLOUDY    60  37  42 W6        29.70F
FORT BRIDGER,    N/A     59  30  32 S8        29.88F
EVANSTON, WY   CLOUDY    61  30  31 SW21G29   29.84F
ROCK SPRINGS,  CLEAR     60  30  32 S24G30    29.85F
KEMMERER, WY     N/A     57  36  44 W22G32    29.88R

$$




USA.gov is the U.S. government's official web portal to all federal, state and local government web resources and services.